STARLINK-11127 [DTC] (60119 NORAD) Tracking and Keplerian Element Data

This shows tracking and keplerian element data for the satellite.

Feedback or suggestion? Click here.




ElementValue
Catalog60119
NameSTARLINK-11127 [DTC]
Epoch Orbit1744
Epoch Day286.83315395
Epoch Year2024
RAAN229.4407
Inclination53.1559
Eccentricity0.0002095
Argument of Perigee76.021
Mean Anonmoly284.1041
Mean Motion15.6974337
Decay Rate0.00093644
L11 60119U 24118G 24286.83315395 .00093644 00000+0 76800-3 0 9991
L22 60119 53.1559 229.4407 0002095 76.0210 284.1041 15.69743370 17448



Live tracking and technical data element details for STARLINK-11127 [DTC] (NORAD 60119). STARLINK-11127 [DTC] can be tracked NOW for your location showing map with azimuth and elevation plus other details from your city location.







IsCatalogInMostPopularTable: catalog: 60119, numindb: 10
Update: records affected: 1



GetName: 60119 STARLINK-11127 [DTC]

Hit Count: updated at: Thu, 23 Jan 2025 14:40:12 GMT